Milwaukee, WI

3:28 PM CST on December 12, 2019 (GMT -0600)
Gen Mitchell International

Weather History for KMKE - September, 2019

Change the Weather History Date:

Wednesday, September 4, 2019

  Actual Average Record
Temperature  
Mean Temperature 64 °F 68 °F  
Max Temperature 66 °F 76 °F 92 °F (1990)
Min Temperature 60 °F 60 °F 41 °F (1974)
Degree Days  
Heating Degree Days 2 1  
Month to date heating degree days 1 4  
Since 1 July heating degree days 3 30  
Cooling Degree Days 0 4  
Month to date cooling degree days 18 17  
Year to date cooling degree days 624 582  
Growing Degree Days 14 (Base 50)    
Moisture  
Dew Point 52 °F    
Average Humidity 70    
Maximum Humidity 78    
Minimum Humidity 58    
Precipitation  
Precipitation 0.00 in 0.10 in 2.11 in (1889)
Month to date precipitation 0.26 0.41  
Year to date precipitation 28.67 24.59  
Snow  
Snow 0.00 in 0.00 in 0.00 in (2018)
Month to date snowfall 0.0 0.0  
Since 1 July snowfall 0.0 0.0  
Since 1 September snowfall 0.0 0.0  
Snow Depth 0.00 in    
Sea Level Pressure  
Sea Level Pressure 30.09 in    
Wind  
Wind Speed 7 mph ()    
Max Wind Speed 15 mph    
Max Gust Speed 22 mph    
Visibility 10.0 miles    
Events      
T = Trace of Precipitation, MM = Missing Value Source: Averaged Metar Reports

Daily Weather History Graph

Daily Weather History Graph

Search for Another Location

Airport or City:

Astronomy

Sep. 04, 2019 Rise Set
Actual Time 6:19 AM CDT 7:21 PM CDT
Civil Twilight 5:50 AM CDT 7:50 PM CDT
Nautical Twilight 5:15 AM CDT 8:24 PM CDT
Astronomical Twilight 4:39 AM CDT 9:01 PM CDT
Moon 12:28 PM CDT (9/4) 10:46 PM CDT (9/4)
Length of Visible Light 14h 00m
Length of Day
13h 02m
Waxing Crescent, 35% of the Moon is Illuminated
Sep 4
Waxing Crescent
Sep 5
First Quarter
Sep 13
Full
Sep 21
Last Quarter
Sep 28
New

Hourly Weather History & Observations

Time (CDT) Temp. Dew Point Humidity Pressure Visibility Wind Dir Wind Speed Gust Speed Precip Events Conditions
12:52 AM 66.9 °F 55.0 °F 66% 29.90 in 10.0 mi WNW 8.1 mph - N/A   Partly Cloudy
1:52 AM 66.0 °F 52.0 °F 60% 29.92 in 10.0 mi WNW 10.4 mph - N/A   Clear
2:52 AM 64.0 °F 52.0 °F 65% 29.94 in 10.0 mi WNW 10.4 mph - N/A   Clear
3:52 AM 63.0 °F 53.1 °F 70% 29.96 in 10.0 mi WNW 9.2 mph - N/A   Clear
4:52 AM 62.1 °F 53.1 °F 72% 29.98 in 10.0 mi WNW 8.1 mph - N/A   Clear
5:52 AM 60.1 °F 53.1 °F 78% 30.01 in 10.0 mi NW 6.9 mph - N/A   Scattered Clouds
6:52 AM 61.0 °F 54.0 °F 78% 30.04 in 10.0 mi WNW 6.9 mph - N/A   Mostly Cloudy
7:52 AM 62.1 °F 54.0 °F 75% 30.07 in 10.0 mi NNW 10.4 mph - N/A   Mostly Cloudy
8:52 AM 61.0 °F 53.1 °F 75% 30.09 in 10.0 mi NNE 9.2 mph - N/A   Mostly Cloudy
9:06 AM 62.1 °F 53.1 °F 72% 30.09 in 10.0 mi NNE 10.4 mph - N/A   Mostly Cloudy
9:52 AM 62.1 °F 52.0 °F 70% 30.11 in 10.0 mi NE 9.2 mph - N/A   Overcast
10:52 AM 62.1 °F 52.0 °F 70% 30.13 in 10.0 mi NNE 12.7 mph - N/A   Mostly Cloudy
11:52 AM 63.0 °F 53.1 °F 70% 30.14 in 10.0 mi NE 10.4 mph - N/A   Mostly Cloudy
12:52 PM 63.0 °F 53.1 °F 70% 30.16 in 10.0 mi NNE 8.1 mph - N/A   Mostly Cloudy
1:52 PM 63.0 °F 53.1 °F 70% 30.15 in 10.0 mi NNE 10.4 mph - N/A   Mostly Cloudy
2:52 PM 63.0 °F 51.1 °F 65% 30.16 in 10.0 mi NNE 9.2 mph - N/A   Mostly Cloudy
3:52 PM 63.0 °F 52.0 °F 67% 30.16 in 10.0 mi NNE 6.9 mph - N/A   Mostly Cloudy
4:52 PM 62.1 °F 52.0 °F 70% 30.15 in 10.0 mi NE 5.8 mph - N/A   Mostly Cloudy
5:52 PM 62.1 °F 51.1 °F 67% 30.17 in 10.0 mi NE 5.8 mph - N/A   Mostly Cloudy
6:52 PM 62.1 °F 52.0 °F 70% 30.17 in 10.0 mi NE 3.5 mph - N/A   Mostly Cloudy
7:52 PM 61.0 °F 51.1 °F 70% 30.17 in 10.0 mi Calm Calm - N/A   Overcast
8:52 PM 62.1 °F 51.1 °F 67% 30.17 in 10.0 mi NNE 4.6 mph - N/A   Mostly Cloudy
9:52 PM 61.0 °F 52.0 °F 72% 30.17 in 10.0 mi Calm Calm - N/A   Mostly Cloudy
10:52 PM 62.1 °F 52.0 °F 70% 30.17 in 10.0 mi Calm Calm - N/A   Mostly Cloudy
11:52 PM 61.0 °F 52.0 °F 72% 30.17 in 10.0 mi Calm Calm - N/A   Mostly Cloudy